Location: Castle Hill Houses
(40.8186°N, 73.8497°W)
Time: 15:45:23
(UTC+00:00)

STARLINK-1050 - Pass Details

Date: 26 January 2020
Orbit: 549 x 550 km, 53.1° (Epoch: 21 February)

Event Time Altitude Azimuth Distance (km) Brightness Sun altitude
Exits shadow 10:41:41 14° 220° (SW) 1,586 5.7 -17.0°
Maximum altitude 10:45:12 69° 138° (SE) 588 3.9 -16.3°
Drops below altitude 10° 10:49:19 10° 55° (NE) 1,827 6.9 -15.6°
Sets 10:51:34 0° 53° (NE) 2,724 7.8 -15.1°
